Regional Weather Roundup
Issued by NWS

Home | Current Version | Previous Version | Text Only | Print | Product List | Glossary On
Versions: 1 2 3 4 5 6 7 8 9 10 11 12 13 14 15 16 17 18 19 20 21 22 23 24 25 26 27 28 29 30 31 32 33 34 35 36 37 38 39 40 41 42 43 44 45 46 47 48 49 50
000
ASUS43 KDTX 250301
RWRMI
MICHIGAN HOURLY REGIONAL WEATHER ROUNDUP
NATIONAL WEATHER SERVICE DETROIT/PONTIAC MI
1100 PM EDT MON APR 24 2017

NOTE: "FAIR" INDICATES FEW OR NO CLOUDS BELOW 12,000 FEET WITH NO
SIGNIFICANT WEATHER AND/OR OBSTRUCTION TO VISIBILITY.

MIZ047>049-052>055-059>063-066>070-074>076-081>083-250400-
SOUTHEAST LOWER MICHIGAN

CITY           SKY/WX    TMP DP  RH WIND       PRES   REMARKS
ADRIAN         CLEAR     52  43  71 SE15      29.88F
ALMA           CLOUDY    46  44  93 NE8       29.90F
ANN ARBOR      CLOUDY    56  40  55 E9G20     29.88F
BAD AXE        CLOUDY    49  38  63 SE5       29.96S
CARO           PTCLDY    51  40  68 E7        29.94R
DETROIT CITY   CLOUDY    54  42  64 E18G24    29.92F
DETROIT        CLOUDY    56  39  53 E15G26    29.91F
FLINT          CLOUDY    53  42  66 E8        29.91S
GROSSE ILE     CLOUDY    54  40  59 E12       29.91S
HILLSDALE      CLEAR     54  36  50 E12G20    29.86S
HOWELL         CLOUDY    58  31  35 E7        29.89S

CITY           SKY/WX    TMP DP  RH WIND       PRES   REMARKS
JACKSON        CLEAR     57  33  40 E10       29.88R
LAMBERTVILLE   CLOUDY    52  46  79 E5        29.89F
LANSING        CLOUDY    57  31  37 E9        29.90R
LAPEER         FAIR      53  40  63 E5        29.93S
MASON          PTCLDY    58  36  44 E6        29.89S
MONROE         CLOUDY    53  43  70 E9G25     29.90S
MT. CLEMENS    MOCLDY    51  46  84 E7        29.91F
PONTIAC        MOCLDY    58  37  45 SE15G25   29.90S
PORT HOPE        N/A     52  40  63 SE16      29.95F
PORT HURON     CLOUDY    52  36  54 E13       29.94F
TRI CITIES     CLOUDY    50  47  89 NE8       29.92S
MIDLAND        FAIR      48  41  77 E6        29.91F
TROY           CLOUDY    57  36  45 E9G23     29.93F
SAGINAW HB     CLOUDY    54  39  58 E8        29.91F
$$
MIZ043>046-050>051-056>058-064>065-071>073-077>080-250400-
SOUTHWEST LOWER MICHIGAN

CITY           SKY/WX    TMP DP  RH WIND       PRES   REMARKS
BATTLE CREEK   CLOUDY    61  34  36 SE12      29.87S
BENTON HARBOR  PTCLDY    59  31  34 E8        29.81S
BIG RAPIDS     CLEAR     52  41  66 SE8       29.87S
COLDWATER      CLEAR     55  32  42 E7        29.86S
FREMONT        FAIR      58  33  38 E8        29.84S
HOLLAND        CLOUDY    57  35  43 SE7       29.83S
GRAND RAPIDS   CLOUDY    58  37  45 E10       29.84F
IONIA          FAIR      56  33  42 E8        29.87S
KALAMAZOO      CLOUDY    60  31  33 SE6       29.85F
LUDINGTON      PTCLDY    56  38  50 SE6       29.82S
MARSHALL       CLOUDY    57  34  42 E6        29.87S
MOUNT PLEASANT CLOUDY    48  40  75 E6        29.91S
MUSKEGON       MOCLDY    59  31  34 E8        29.83R
SOUTH HAVEN    PTCLDY    60  32  35 SE5       29.81F
$$
MIZ016>042-250400-
NORTHERN LOWER MICHIGAN

CITY           SKY/WX    TMP DP  RH WIND       PRES   REMARKS
ALPENA         CLOUDY    41  35  79 SE6       29.98F
BEAVER ISLAND  CLOUDY    46  37  70 E9        29.89R
BELLAIRE       PTCLDY    56  36  48 SE9       29.88S
CADILLAC       CLOUDY    51  40  65 E10       29.88S
CHARLEVOIX     CLOUDY    52  37  57 E15       29.92R
FRANKFORT      PTCLDY    46  34  64 CALM      29.84S
GAYLORD        CLOUDY    46  33  60 SE8       29.92F
GRAYLING       CLOUDY    46  35  64 E7        29.93F
HARBOR SPRINGS PTCLDY    46  35  67 E14       29.92S
HOUGHTON LAKE  CLOUDY    47  37  68 E10       29.92S
MANISTEE       PTCLDY    51  38  60 E5        29.83S
OSCODA         CLOUDY    45  37  72 W3        29.96S
PELLSTON       PTCLDY    46  33  60 SE10      29.93F
ROGERS CITY    CLOUDY    43  32  65 SE7       29.99S
TRAVERSE CITY  CLOUDY    58  40  51 SE6       29.85S
$$
MIZ007>008-015-250400-
EASTERN UPPER MICHIGAN

CITY           SKY/WX    TMP DP  RH WIND       PRES   REMARKS
KINROSS        CLOUDY    44  32  62 E17       29.94F
MACKINAC ISLAN MOCLDY    43  31  63 SE15G24   29.94F
NEWBERRY       CLOUDY    43  32  65 SE12G21   29.90S
S. S. MARIE    CLEAR     47  32  56 E10G18    29.94F
MUNISING         N/A     46  34  62 S9G17     29.83F
$$
MIZ004>006-011>014-085-250400-
CENTRAL UPPER MICHIGAN

CITY           SKY/WX    TMP DP  RH WIND       PRES   REMARKS
MANISTIQUE     PTCLDY    43  36  74 E12       29.85F
ESCANABA       CLOUDY    43  37  79 E6        29.85S
MENOMINEE      CLOUDY    44  38  79 E7        29.82F
SAWYER-GWINN   PTCLDY    44  35  71 S8        29.83S
$$
MIZ001>003-009>011-084-250400-
WESTERN UPPER MICHIGAN

CITY           SKY/WX    TMP DP  RH WIND       PRES   REMARKS
IRON MOUNTAIN  PTCLDY    44  34  67 E6        29.80S
HOUGHTON       CLOUDY    45  34  65 E8        29.74S
COPPER HARBOR    N/A     48  36  63 SW17G31   29.76S
IRONWOOD       CLOUDY    59  36  42 SE12      29.68S
$$

ABBREVIATIONS USED IN REMARKS
   TC - TEMPERATURE IN CELSIUS
  WCI - WIND CHILL INDEX
   HX - HEAT INDEX
  VSB - VISIBILITY





USA.gov is the U.S. government's official web portal to all federal, state and local government web resources and services.